Fort Myers Airport, FL

1:46 AM EDT on June 25, 2017 (GMT -0400)
Southwest Florida International

Weather History for KRSW - February, 2014

Change the Weather History Date:

Saturday, February 22, 2014

  Actual Average Record
Temperature  
Mean Temperature 75 °F -  
Max Temperature 82 °F 78 °F 91 °F (1975)
Min Temperature 68 °F 57 °F 36 °F (1977)
Cooling Degree Days 10    
Growing Degree Days 25 (Base 50)    
Moisture  
Dew Point 68 °F    
Average Humidity 87    
Maximum Humidity 100    
Minimum Humidity 60    
Precipitation  
Precipitation 0.00 in - - ()
Sea Level Pressure  
Sea Level Pressure 30.07 in    
Wind  
Wind Speed 4 mph (SSW)    
Max Wind Speed 14 mph    
Max Gust Speed 20 mph    
Visibility 6 miles    
Events Fog    
Averages and records for this station are not official NWS values.
T = Trace of Precipitation, MM = Missing Value Source: NWS Daily Summary

Daily Weather History Graph

Daily Weather History Graph

Search for Another Location

Airport or City:

Trip Planner

Search our weather history database for the weather conditions in past years. The results will help you decide how hot, cold, wet, or windy it might be!

Date:

Astronomy

Feb. 22, 2014 Rise Set
Actual Time 6:57 AM EST 6:24 PM EST
Civil Twilight 6:33 AM EST 6:47 PM EST
Nautical Twilight 6:06 AM EST 7:14 PM EST
Astronomical Twilight 5:39 AM EST 7:41 PM EST
Moon 12:38 AM EST (2/22) 11:48 AM EST (2/22)
Length of Visible Light 12h 13m
Length of Day
11h 26m
Waning Gibbous, 50% of the Moon is Illuminated
Feb 22
Waning Gibbous
Feb 22
Last Quarter
Mar 1
New
Mar 8
First Quarter
Mar 16
Full

Hourly Weather History & Observations

Time (EST) Temp. Heat Index Dew Point Humidity Pressure Visibility Wind Dir Wind Speed Gust Speed Precip Events Conditions
12:53 AM 70.0 °F - 66.9 °F 90% 30.06 in 10.0 mi SSE 3.5 mph - N/A   Clear
1:53 AM 70.0 °F - 68.0 °F 93% 30.04 in 10.0 mi Calm Calm - N/A   Clear
2:53 AM 69.1 °F - 66.9 °F 93% 30.04 in 10.0 mi Calm Calm - N/A   Mostly Cloudy
3:30 AM 68.0 °F - 66.0 °F 93% 30.05 in 10.0 mi NE 3.5 mph - N/A   Overcast
3:34 AM 68.0 °F - 66.0 °F 93% 30.04 in 10.0 mi NE 3.5 mph - N/A   Overcast
3:53 AM 68.0 °F - 66.9 °F 96% 30.04 in 10.0 mi Calm Calm - N/A   Overcast
4:39 AM 68.0 °F - 66.9 °F 96% 30.04 in 1.8 mi East 3.5 mph - N/A   Overcast
4:49 AM 68.0 °F - 66.2 °F 94% 30.04 in 0.5 mi Calm Calm - N/A Fog Fog
4:53 AM 68.0 °F - 66.9 °F 96% 30.04 in 0.5 mi East 3.5 mph - N/A Fog Fog
5:01 AM 68.0 °F - 66.9 °F 96% 30.04 in 0.2 mi SE 3.5 mph - N/A Fog Fog
5:53 AM 68.0 °F - 66.9 °F 96% 30.05 in 0.2 mi East 3.5 mph - N/A Fog Fog
6:05 AM 68.0 °F - 66.9 °F 96% 30.05 in 0.5 mi East 5.8 mph - N/A Fog Fog
6:15 AM 68.0 °F - 66.9 °F 96% 30.06 in 0.2 mi East 4.6 mph - N/A Fog Fog
6:26 AM 68.0 °F - 66.9 °F 96% 30.06 in 1.0 mi ESE 4.6 mph - N/A   Overcast
6:32 AM 68.0 °F - 66.9 °F 96% 30.06 in 3.0 mi ESE 3.5 mph - N/A   Overcast
6:53 AM 68.0 °F - 66.9 °F 96% 30.06 in 1.2 mi ENE 3.5 mph - N/A   Overcast
7:02 AM 68.0 °F - 68.0 °F 100% 30.07 in 0.5 mi Calm Calm - N/A Fog Fog
7:10 AM 68.0 °F - 68.0 °F 100% 30.08 in 0.2 mi Calm Calm - N/A Fog Fog
7:53 AM 69.1 °F - 69.1 °F 100% 30.09 in 0.2 mi Calm Calm - N/A Fog Fog
8:08 AM 70.0 °F - 69.1 °F 97% 30.09 in 1.0 mi Calm Calm - N/A   Overcast
8:15 AM 70.0 °F - 69.1 °F 97% 30.10 in 3.0 mi SSE 3.5 mph - N/A   Overcast
8:19 AM 70.0 °F - 69.1 °F 97% 30.10 in 1.8 mi SE 4.6 mph - N/A   Overcast
8:26 AM 70.0 °F - 69.1 °F 97% 30.10 in 0.2 mi SE 4.6 mph - N/A Fog Fog
8:53 AM 71.1 °F - 70.0 °F 96% 30.11 in 0.2 mi Calm Calm - N/A Fog Fog
9:08 AM 71.1 °F - 70.0 °F 96% 30.12 in 1.0 mi Calm Calm - N/A   Overcast
9:13 AM 71.1 °F - 70.0 °F 96% 30.12 in 3.0 mi Calm Calm - N/A   Overcast
9:45 AM 73.0 °F - 71.1 °F 93% 30.13 in 10.0 mi SSW 4.6 mph - N/A   Overcast
9:53 AM 73.9 °F - 70.0 °F 87% 30.12 in 10.0 mi SW 4.6 mph - N/A   Overcast
10:22 AM 77.0 °F - 71.1 °F 82% 30.13 in 10.0 mi South 4.6 mph - N/A   Mostly Cloudy
10:31 AM 78.1 °F - 70.0 °F 76% 30.12 in 10.0 mi SSW 5.8 mph - N/A   Mostly Cloudy
10:53 AM 78.1 °F - 70.0 °F 76% 30.12 in 10.0 mi SSW 3.5 mph - N/A   Mostly Cloudy
11:04 AM 79.0 °F - 69.1 °F 72% 30.12 in 10.0 mi SSW 9.2 mph - N/A   Scattered Clouds
11:50 AM 80.6 °F 83.2 °F 68.0 °F 65% 30.10 in 10.0 mi WSW 10.4 mph - N/A   Mostly Cloudy
11:53 AM 81.0 °F 83.8 °F 68.0 °F 65% 30.09 in 10.0 mi SW 6.9 mph - N/A   Mostly Cloudy
12:14 PM 81.0 °F 83.8 °F 68.0 °F 65% 30.09 in 10.0 mi WSW 9.2 mph - N/A   Partly Cloudy
12:53 PM 82.9 °F 85.8 °F 68.0 °F 60% 30.06 in 10.0 mi SW 6.9 mph - N/A   Scattered Clouds
1:17 PM 82.0 °F 85.5 °F 69.1 °F 65% 30.06 in 10.0 mi WSW 13.8 mph - N/A   Mostly Cloudy
1:29 PM 82.0 °F 84.9 °F 68.0 °F 62% 30.05 in 10.0 mi SW 11.5 mph - N/A   Partly Cloudy
1:53 PM 82.0 °F 84.9 °F 68.0 °F 62% 30.03 in 10.0 mi SW 10.4 mph - N/A   Clear
2:53 PM 82.0 °F 84.9 °F 68.0 °F 62% 30.01 in 10.0 mi SW 11.5 mph - N/A   Clear
3:53 PM 81.0 °F 83.8 °F 68.0 °F 65% 30.01 in 10.0 mi WSW 11.5 mph 19.6 mph N/A   Clear
4:53 PM 80.1 °F 82.9 °F 69.1 °F 69% 30.02 in 10.0 mi WSW 9.2 mph - N/A   Clear
5:53 PM 77.0 °F - 68.0 °F 74% 30.03 in 10.0 mi WSW 10.4 mph - N/A   Clear
6:53 PM 73.0 °F - 69.1 °F 87% 30.04 in 10.0 mi WSW 6.9 mph - N/A   Clear
7:53 PM 73.0 °F - 70.0 °F 90% 30.05 in 10.0 mi West 5.8 mph - N/A   Clear
8:29 PM 72.0 °F - 70.0 °F 93% 30.08 in 10.0 mi West 4.6 mph - N/A   Scattered Clouds
8:38 PM 73.0 °F - 70.0 °F 90% 30.08 in 10.0 mi West 5.8 mph - N/A   Mostly Cloudy
8:53 PM 72.0 °F - 70.0 °F 93% 30.08 in 10.0 mi West 3.5 mph - N/A   Overcast
9:53 PM 72.0 °F - 69.1 °F 91% 30.09 in 10.0 mi Calm Calm - N/A   Mostly Cloudy
10:53 PM 72.0 °F - 68.0 °F 87% 30.10 in 10.0 mi NNE 5.8 mph - N/A   Overcast
11:53 PM 71.1 °F - 69.1 °F 93% 30.09 in 6.0 mi Calm Calm - N/A   Overcast